When you browse on this site, cookies collect data to enhance your experience and personalize the content and advertising you see.
Visit our Privacy Policy to learn more. By continuing to use the site, you agree to this use of cookies and data.
  • In Sweden
  • List of Countries
  • For 7 days
  • Water Temperature
  • Weather Map
  • Weather Widgets
  • user-avatar
    Login

    Hourly Weather Kipungo

    Today, 21 September, Saturday

    Time Temperature Precipitation Wind Pressure Humidity
    00:00 +17°C° 0 mm 2 mps 652 mmHg 62%
    01:00 +16°C° 0 mm 2 mps 652 mmHg 77%
    02:00 +15°C° 0 mm 1 mps 652 mmHg 79%
    03:00 +15°C° 0 mm 1 mps 651 mmHg 81%
    04:00 +13°C° 0 mm 0 mps 651 mmHg 83%
    05:00 +15°C° 0 mm 0 mps 652 mmHg 76%
    06:00 +16°C° 0 mm 0 mps 653 mmHg 69%
    07:00 +18°C° 0 mm 0 mps 654 mmHg 59%
    08:00 +23°C° 0 mm 0 mps 655 mmHg 45%
    09:00 +29°C° 0 mm 1 mps 655 mmHg 32%
    10:00 +33°C° 0 mm 1 mps 656 mmHg 18%
    11:00 +36°C° 0 mm 2 mps 656 mmHg 15%
    12:00 +37°C° 0 mm 2 mps 655 mmHg 12%
    13:00 +39°C° 0 mm 2 mps 655 mmHg 9%
    14:00 +39°C° 0 mm 2 mps 654 mmHg 9%
    15:00 +39°C° 0 mm 1 mps 654 mmHg 9%
    16:00 +39°C° 0 mm 1 mps 653 mmHg 9%
    17:00 +34°C° 0 mm 1 mps 653 mmHg 13%
    18:00 +31°C° 0 mm 2 mps 653 mmHg 17%
    19:00 +27°C° 0 mm 2 mps 653 mmHg 21%
    20:00 +25°C° 0 mm 2 mps 652 mmHg 33%
    21:00 +21°C° 0 mm 2 mps 652 mmHg 45%
    22:00 +19°C° 0 mm 2 mps 652 mmHg 57%
    23:00 +18°C° 0 mm 2 mps 652 mmHg 60%

    Tomorrow, 22 September, Sunday

    Time Temperature Precipitation Wind Pressure Humidity
    00:00 +19°C° 0 mm 1 mps 652 mmHg 63%
    01:00 +18°C° 0 mm 1 mps 652 mmHg 66%
    02:00 +16°C° 0 mm 1 mps 651 mmHg 68%
    03:00 +15°C° 0 mm 0 mps 651 mmHg 71%
    04:00 +14°C° 0 mm 0 mps 651 mmHg 73%
    05:00 +15°C° 0 mm 0 mps 652 mmHg 65%
    06:00 +19°C° 0 mm 1 mps 653 mmHg 58%
    07:00 +20°C° 0 mm 1 mps 653 mmHg 50%
    08:00 +25°C° 0 mm 1 mps 654 mmHg 37%
    09:00 +29°C° 0 mm 2 mps 655 mmHg 25%
    10:00 +34°C° 0 mm 2 mps 655 mmHg 12%
    11:00 +36°C° 0 mm 2 mps 655 mmHg 10%
    12:00 +38°C° 0 mm 2 mps 655 mmHg 8%
    13:00 +40°C° 0 mm 2 mps 654 mmHg 6%
    14:00 +40°C° 0 mm 2 mps 654 mmHg 6%
    15:00 +39°C° 0 mm 1 mps 653 mmHg 6%
    16:00 +39°C° 0 mm 1 mps 653 mmHg 6%
    17:00 +35°C° 0 mm 2 mps 653 mmHg 11%
    18:00 +31°C° 0 mm 2 mps 652 mmHg 16%
    19:00 +27°C° 0 mm 3 mps 652 mmHg 21%
    20:00 +25°C° 0 mm 3 mps 652 mmHg 33%
    21:00 +22°C° 0 mm 3 mps 652 mmHg 45%
    22:00 +19°C° 0 mm 2 mps 652 mmHg 57%
    23:00 +18°C° 0 mm 2 mps 652 mmHg 60%

    Day after tomorrow, 23 September, Monday

    Time Temperature Precipitation Wind Pressure Humidity
    00:00 +18°C° 0 mm 2 mps 652 mmHg 64%
    01:00 +18°C° 0 mm 1 mps 652 mmHg 67%
    02:00 +16°C° 0 mm 1 mps 651 mmHg 66%
    03:00 +16°C° 0 mm 1 mps 651 mmHg 65%
    04:00 +15°C° 0 mm 1 mps 651 mmHg 64%
    05:00 +16°C° 0 mm 1 mps 652 mmHg 57%
    06:00 +19°C° 0 mm 1 mps 652 mmHg 51%
    07:00 +19°C° 0 mm 2 mps 653 mmHg 44%
    08:00 +24°C° 0 mm 2 mps 654 mmHg 34%
    09:00 +29°C° 0 mm 2 mps 655 mmHg 23%
    10:00 +35°C° 0 mm 3 mps 655 mmHg 12%
    11:00 +36°C° 0 mm 3 mps 655 mmHg 11%
    12:00 +38°C° 0 mm 3 mps 654 mmHg 10%
    13:00 +40°C° 0 mm 3 mps 654 mmHg 9%
    14:00 +39°C° 0 mm 2 mps 654 mmHg 9%
    15:00 +39°C° 0 mm 2 mps 653 mmHg 9%
    16:00 +39°C° 0 mm 2 mps 653 mmHg 10%
    17:00 +36°C° 0 mm 2 mps 653 mmHg 14%
    18:00 +31°C° 0 mm 2 mps 653 mmHg 19%
    19:00 +28°C° 0 mm 3 mps 653 mmHg 23%
    20:00 +26°C° 0 mm 3 mps 653 mmHg 34%
    21:00 +24°C° 0 mm 2 mps 653 mmHg 45%
    22:00 +21°C° 0 mm 2 mps 653 mmHg 56%
    23:00 +20°C° 0 mm 2 mps 653 mmHg 58%

    24 September, Tuesday

    Time Temperature Precipitation Wind Pressure Humidity
    00:00 +20°C° 0 mm 2 mps 653 mmHg 61%
    01:00 +19°C° 0 mm 2 mps 652 mmHg 64%
    02:00 +19°C° 0 mm 2 mps 652 mmHg 63%
    03:00 +19°C° 0 mm 2 mps 652 mmHg 63%
    04:00 +20°C° 0 mm 1 mps 652 mmHg 62%
    05:00 +21°C° 0 mm 1 mps 653 mmHg 59%
    06:00 +21°C° 0 mm 1 mps 653 mmHg 57%
    07:00 +21°C° 0 mm 1 mps 654 mmHg 55%
    08:00 +27°C° 0 mm 1 mps 655 mmHg 41%
    09:00 +31°C° 0 mm 0 mps 656 mmHg 28%
    10:00 +37°C° 0 mm 0 mps 657 mmHg 14%
    11:00 +40°C° 0 mm 1 mps 656 mmHg 13%
    12:00 +40°C° 0 mm 1 mps 655 mmHg 12%
    13:00 +41°C° 0 mm 2 mps 654 mmHg 11%
    14:00 +40°C° 0 mm 2 mps 654 mmHg 12%
    15:00 +39°C° 0 mm 2 mps 653 mmHg 12%
    16:00 +38°C° 0 mm 2 mps 653 mmHg 13%
    17:00 +35°C° 0 mm 2 mps 653 mmHg 17%
    18:00 +31°C° 0 mm 3 mps 653 mmHg 21%
    19:00 +29°C° 0 mm 3 mps 653 mmHg 25%
    20:00 +26°C° 0 mm 3 mps 653 mmHg 37%
    21:00 +24°C° 0 mm 3 mps 653 mmHg 49%
    22:00 +20°C° 0 mm 2 mps 653 mmHg 62%
    23:00 +19°C° 0 mm 2 mps 653 mmHg 67%

    25 September, Wednesday

    Time Temperature Precipitation Wind Pressure Humidity
    00:00 +18°C° 0 mm 2 mps 653 mmHg 73%
    01:00 +17°C° 0 mm 2 mps 652 mmHg 78%
    02:00 +18°C° 0 mm 1 mps 652 mmHg 80%
    03:00 +16°C° 0 mm 1 mps 652 mmHg 82%
    04:00 +16°C° 0 mm 1 mps 652 mmHg 84%
    05:00 +18°C° 0 mm 1 mps 653 mmHg 78%
    06:00 +17°C° 0 mm 0 mps 653 mmHg 71%
    07:00 +19°C° 0 mm 0 mps 654 mmHg 64%
    08:00 +25°C° 0 mm 1 mps 655 mmHg 50%
    09:00 +30°C° 0 mm 2 mps 656 mmHg 35%
    10:00 +35°C° 0 mm 2 mps 656 mmHg 20%
    11:00 +37°C° 0 mm 3 mps 656 mmHg 17%
    12:00 +38°C° 0 mm 3 mps 655 mmHg 14%
    13:00 +40°C° 0 mm 3 mps 655 mmHg 11%
    14:00 +40°C° 0 mm 3 mps 654 mmHg 10%
    15:00 +39°C° 0 mm 3 mps 654 mmHg 10%
    16:00 +40°C° 0 mm 4 mps 653 mmHg 9%
    17:00 +36°C° 0 mm 3 mps 653 mmHg 13%
    18:00 +31°C° 0 mm 3 mps 653 mmHg 17%
    19:00 +28°C° 0 mm 2 mps 653 mmHg 21%
    20:00 +25°C° 0 mm 2 mps 653 mmHg 37%
    21:00 +23°C° 0 mm 2 mps 653 mmHg 52%
    22:00 +19°C° 0 mm 2 mps 653 mmHg 67%
    23:00 +18°C° 0 mm 2 mps 653 mmHg 73%

    26 September, Thursday

    Time Temperature Precipitation Wind Pressure Humidity
    00:00 +18°C° 0 mm 1 mps 652 mmHg 79%
    01:00 +16°C° 0 mm 1 mps 652 mmHg 86%
    02:00 +16°C° 0 mm 1 mps 652 mmHg 84%
    03:00 +16°C° 0 mm 1 mps 652 mmHg 83%
    04:00 +16°C° 0 mm 1 mps 652 mmHg 81%
    05:00 +18°C° 0 mm 1 mps 653 mmHg 75%
    06:00 +17°C° 0 mm 0 mps 653 mmHg 69%
    07:00 +18°C° 0 mm 0 mps 654 mmHg 63%
    08:00 +24°C° 0 mm 2 mps 655 mmHg 49%
    09:00 +28°C° 0 mm 3 mps 655 mmHg 36%
    10:00 +33°C° 0 mm 4 mps 656 mmHg 23%
    11:00 +35°C° 0 mm 4 mps 656 mmHg 19%
    12:00 +37°C° 0 mm 4 mps 655 mmHg 15%
    13:00 +40°C° 0 mm 4 mps 655 mmHg 11%
    14:00 +40°C° 0 mm 4 mps 655 mmHg 10%
    15:00 +40°C° 0 mm 4 mps 654 mmHg 10%
    16:00 +40°C° 0 mm 4 mps 654 mmHg 9%
    17:00 +36°C° 0 mm 3 mps 654 mmHg 12%
    18:00 +33°C° 0 mm 3 mps 654 mmHg 14%
    19:00 +29°C° 0 mm 2 mps 654 mmHg 16%
    20:00 +27°C° 0 mm 2 mps 654 mmHg 28%
    21:00 +24°C° 0 mm 2 mps 654 mmHg 39%
    22:00 +21°C° 0 mm 2 mps 654 mmHg 51%
    23:00 +20°C° 0 mm 2 mps 654 mmHg 55%
    Show more